Wind_Speed
28 29 29 29 29 29 29 28 27 25 24 22 21 21 21 21 21 21 20 19 18 18 17 18 18 18 18 19 19 18 18 18 18 18 18 18 18 18 18 18 18 18 19 20
28 28 28 28 28 29 29 28 27 26 25 24 24 23 23 22 22 22 22 22 21 20 20 20 20 21 21 20 20 20 20 20 20 20 20 19 20 20 20 20 20 21 21 22
27 28 28 29 28 28 28 28 28 28 27 26 26 25 25 24 23 23 22 23 23 23 23 22 22 23 22 22 22 22 23 22 22 22 22 22 23 22 22 22 23 23 23 23
28 29 30 29 28 29 29 29 29 29 28 27 26 26 26 26 26 25 24 24 25 25 25 24 24 23 23 24 25 25 25 24 24 23 24 24 25 25 25 25 25 25 25 25
27 28 29 30 29 28 29 30 29 29 29 28 27 26 26 27 27 27 27 27 28 27 27 26 25 25 25 26 26 25 25 25 25 26 26 26 27 27 27 27 27 27 27 26
28 28 28 29 27 27 28 30 29 29 29 28 28 28 27 27 28 28 28 29 30 30 29 27 26 26 26 26 26 26 27 28 28 27 26 27 27 27 27 28 28 28 28 29
28 29 29 29 27 26 28 28 28 29 29 29 29 29 29 29 29 29 29 30 30 30 30 28 27 28 27 27 27 27 28 29 29 28 27 27 28 28 29 29 30 30 30 30
28 28 28 28 27 27 27 27 28 28 29 29 29 30 30 30 30 29 29 30 30 30 29 29 29 29 29 29 29 29 29 29 28 28 28 29 29 30 31 30 31 31 31 32
28 28 27 26 26 26 26 26 27 28 28 29 29 30 30 30 30 31 31 31 30 30 30 30 30 30 30 30 30 29 28 27 28 29 30 31 31 32 32 32 33 33 32 32
26 26 25 26 26 26 26 26 26 26 26 27 28 29 30 30 30 31 31 31 30 30 30 31 31 30 30 31 30 29 28 29 30 31 31 32 33 33 33 34 34 33 33 33
25 25 24 24 25 25 26 26 26 26 26 27 28 29 29 29 29 30 31 31 31 31 32 32 31 31 31 30 29 29 30 31 31 32 33 33 33 34 34 34 34 33 34 35
25 25 24 24 24 24 25 26 26 25 26 27 27 27 27 28 29 29 30 30 30 29 29 30 30 30 30 31 31 31 32 32 32 32 33 33 34 34 34 35 35 34 34 35
24 25 24 24 25 24 25 25 25 25 25 25 25 26 26 26 26 26 26 27 28 29 29 29 30 31 32 33 33 32 32 32 32 33 33 33 34 34 34 34 34 34 34 34
22 23 23 24 24 24 24 24 24 24 23 23 24 24 24 23 23 24 25 25 26 27 28 29 30 31 32 32 32 31 31 31 32 33 33 34 34 33 33 33 33 33 33 33
21 22 22 23 23 23 23 23 22 22 21 22 22 22 23 23 22 23 24 25 25 26 27 28 29 30 30 31 31 30 30 30 31 32 33 33 33 32 32 33 33 33 33 33
18 19 20 20 21 22 22 21 21 21 21 21 21 21 22 22 23 23 25 25 25 26 26 27 27 28 28 29 28 28 28 29 29 31 31 31 32 32 32 32 33 33 33 34
17 17 18 19 19 19 19 20 20 20 20 20 20 20 21 22 23 24 24 25 25 25 26 26 26 26 26 26 27 27 28 29 30 30 31 31 31 31 32 32 33 33 33 34
15 15 15 15 17 17 17 17 17 17 18 19 19 20 20 20 21 23 24 24 24 24 24 24 24 25 26 26 27 28 28 29 29 29 30 30 30 30 30 31 33 33 34 35
15 16 16 16 16 16 16 17 17 17 17 17 18 18 19 20 20 21 22 22 23 23 23 23 24 25 25 26 27 28 28 28 29 29 28 28 29 29 30 31 32 32 33 34
15 16 16 16 16 16 16 16 17 17 17 17 17 18 19 19 20 21 21 21 21 21 22 22 23 25 26 26 27 27 27 28 28 28 29 29 29 30 30 31 31 32 32 33
15 15 15 15 15 16 16 17 17 17 18 18 18 18 19 19 19 19 20 20 20 21 21 22 23 24 24 25 26 26 27 27 27 28 28 29 30 31 31 32 33 33 33 34
14 14 15 15 15 15 15 16 16 17 17 17 17 18 18 19 19 19 20 20 21 21 22 22 23 23 24 25 25 26 26 26 27 27 28 29 30 30 31 32 32 32 32 33
12 13 14 14 14 15 15 15 15 16 16 16 16 16 17 18 19 19 19 20 21 21 21 21 22 23 24 24 24 25 25 26 27 27 28 28 30 30 31 31 31 31 31 32
10 10 12 13 13 14 14 13 14 14 14 15 15 15 16 17 18 18 19 19 19 20 20 21 22 22 22 23 24 25 26 26 27 28 29 30 30 30 30 31 31 31 31 31
9 10 10 11 12 12 13 14 14 14 14 14 15 15 16 16 17 17 18 18 19 20 20 21 21 22 22 23 24 25 26 27 28 28 29 29 29 30 30 30 30 30 31 32
8 8 9 10 10 11 11 12 12 13 14 14 15 15 15 15 15 15 16 17 18 18 19 19 20 21 23 24 24 25 26 27 28 28 28 29 29 29 30 30 30 30 31 31
7 7 8 8 9 9 9 10 10 11 12 13 13 13 14 14 14 14 15 15 16 16 17 18 19 20 21 22 23 24 25 26 27 27 28 28 29 30 30 30 30 30 30 31
Wind_Direction
235 239 242 243 243 242 243 243 244 249 254 256 256 256 256 255 256 258 259 263 265 265 265 267 269 271 271 272 272 272 273 271 271 272 271 273 273 277 277 279 279 279 279 278
237 239 241 243 243 242 243 243 246 250 254 255 254 253 252 255 257 256 256 259 263 262 264 268 269 270 271 272 272 272 272 272 272 270 271 273 276 278 280 279 279 279 281 283
238 239 242 242 241 243 243 243 245 249 252 253 252 252 253 255 258 258 257 260 263 264 265 267 269 270 270 270 270 272 273 270 271 269 270 274 276 277 280 280 279 280 282 282
239 241 243 244 244 245 245 245 246 249 252 254 252 252 252 255 256 258 258 260 262 264 266 268 269 269 270 271 271 272 272 269 270 270 271 273 274 276 278 280 279 278 279 280
240 243 246 245 245 245 245 245 245 248 251 254 254 253 253 254 256 257 257 259 261 264 267 268 268 268 268 269 271 272 271 271 271 270 270 272 273 276 278 280 279 277 278 280
240 241 244 247 247 246 246 246 245 248 251 253 253 252 253 254 256 257 258 259 262 263 266 268 266 265 265 266 268 270 269 271 271 271 272 273 275 278 280 280 281 281 281 281
240 243 246 247 245 245 246 247 247 249 250 251 251 252 254 255 255 257 259 259 260 262 263 265 264 263 262 264 266 268 269 269 270 270 270 273 276 276 278 280 280 282 281 281
240 242 246 245 245 246 248 246 247 248 249 250 252 253 254 256 257 259 259 259 261 261 262 263 263 263 262 263 265 267 267 268 268 269 271 274 276 277 278 281 281 281 282 283
241 242 243 245 247 248 249 248 249 249 250 251 252 252 253 256 257 257 258 258 260 260 260 260 261 261 261 262 265 266 266 266 268 270 272 274 277 278 279 280 282 281 281 282
241 241 242 245 247 248 249 250 251 252 253 253 254 254 254 256 258 259 258 257 258 258 258 258 259 259 259 262 263 265 266 268 269 271 274 276 278 279 279 280 281 281 281 282
244 243 244 245 247 248 250 251 251 253 254 255 255 256 256 258 258 258 259 259 259 259 257 256 258 260 261 263 265 265 267 269 271 274 274 277 279 279 280 281 282 282 282 282
244 242 243 245 247 247 248 252 254 255 256 258 258 258 257 258 258 258 258 259 259 259 258 259 258 260 263 265 266 267 266 268 271 274 278 280 280 281 282 282 282 282 282 282
246 245 245 245 246 248 249 253 255 257 258 257 256 257 257 258 257 256 257 256 256 258 260 261 262 264 266 265 267 266 267 269 271 275 277 281 282 281 282 283 283 283 283 284
247 246 248 246 247 249 251 255 257 257 259 257 254 256 256 255 254 254 256 257 260 262 262 263 264 266 266 265 266 267 269 271 272 275 278 281 283 281 281 281 283 283 282 283
247 248 248 245 248 250 252 253 255 255 256 254 253 253 253 253 255 256 257 259 261 263 264 266 266 268 269 269 269 270 271 272 274 277 279 281 282 280 280 281 281 281 281 283
248 248 248 247 247 251 252 252 253 253 250 249 249 250 251 253 257 259 261 262 264 265 267 268 269 269 271 272 272 272 272 273 276 279 280 280 280 280 280 280 281 281 282 282
247 248 249 247 247 250 249 249 250 250 248 249 250 251 252 254 257 261 263 265 266 266 266 268 268 269 272 273 274 275 274 276 278 278 279 281 281 281 280 281 281 281 281 282
239 241 246 246 246 248 249 251 254 253 253 255 255 255 256 258 261 263 266 267 267 266 267 268 269 271 272 274 276 277 278 279 279 278 279 280 280 281 281 282 281 282 282 283
239 244 249 249 249 249 248 249 253 256 258 258 259 260 263 264 265 267 268 267 266 265 266 268 271 273 275 275 276 278 278 277 277 277 277 278 280 281 283 284 283 283 284 285
241 244 247 249 250 249 249 252 253 254 256 258 260 262 265 265 266 268 269 269 269 269 269 273 275 276 277 278 279 279 278 277 277 278 280 282 284 286 286 287 288 287 287 287
241 243 246 250 254 255 253 250 251 256 259 261 264 264 265 266 268 268 268 271 274 275 276 276 276 278 281 281 282 282 283 282 282 283 284 285 286 288 290 290 291 290 289 289
247 247 248 251 254 257 258 253 254 256 258 259 262 264 266 268 269 270 271 274 276 278 279 279 279 281 283 283 283 284 285 285 286 287 288 289 289 290 291 293 293 293 293 293
252 251 248 249 253 255 255 254 254 255 258 261 263 266 268 271 272 274 276 277 278 278 278 280 281 282 283 284 286 287 287 288 289 289 289 291 292 291 292 293 294 294 294 295
247 246 251 253 253 252 253 252 254 257 260 262 265 267 270 273 276 277 278 279 280 280 280 281 283 285 286 287 288 288 289 290 291 292 292 293 293 294 295 296 297 297 297 297
244 250 255 257 257 257 256 256 258 260 261 262 265 270 274 278 279 280 281 283 284 284 284 285 285 286 288 290 291 291 292 293 294 295 295 294 295 296 296 297 297 297 298 298
250 255 257 257 258 259 259 260 261 261 263 265 269 273 277 280 282 283 285 287 288 289 289 291 292 292 293 294 295 296 297 297 297 298 298 299 299 299 299 300 300 300 300 300
252 256 257 259 261 261 261 263 264 266 268 270 272 276 280 283 288 289 290 291 290 292 295 296 297 296 296 297 298 300 301 301 301 302 302 303 303 302 301 301 301 301 301 301
Height
5844 5847 5849 5852 5854 5857 5859 5862 5865 5867 5869 5870 5871 5872 5873 5874 5874 5875 5875 5876 5876 5877 5877 5877 5877 5877 5877 5877 5877 5877 5876 5876 5876 5875 5875 5874 5873 5872 5871 5870 5869 5868 5867 5865
5837 5840 5842 5844 5847 5850 5852 5855 5857 5860 5862 5863 5864 5865 5867 5868 5868 5869 5870 5871 5871 5871 5872 5872 5872 5872 5872 5872 5872 5871 5871 5871 5871 5870 5869 5869 5868 5867 5866 5865 5863 5862 5862 5860
5830 5833 5834 5837 5840 5843 5845 5848 5851 5853 5855 5856 5858 5859 5860 5861 5862 5863 5863 5864 5865 5865 5866 5866 5866 5866 5866 5866 5866 5865 5865 5865 5864 5864 5864 5863 5862 5861 5860 5859 5858 5856 5855 5854
5823 5825 5827 5832 5833 5836 5838 5840 5843 5845 5847 5849 5850 5851 5853 5854 5855 5856 5857 5858 5858 5859 5859 5859 5859 5859 5859 5859 5859 5859 5859 5858 5858 5858 5857 5857 5855 5854 5853 5852 5851 5850 5849 5847
5816 5818 5820 5823 5825 5827 5830 5832 5835 5837 5839 5841 5842 5844 5845 5846 5847 5848 5849 5850 5851 5851 5852 5852 5853 5853 5853 5853 5853 5852 5852 5852 5852 5851 5850 5850 5849 5847 5846 5845 5844 5842 5841 5840
5808 5811 5814 5816 5818 5819 5822 5824 5827 5829 5831 5833 5835 5836 5838 5839 5839 5840 5841 5842 5842 5843 5844 5844 5845 5845 5845 5846 5845 5845 5845 5844 5844 5843 5842 5842 5841 5840 5838 5837 5836 5835 5833 5832
5800 5803 5805 5807 5810 5812 5815 5817 5819 5821 5823 5825 5827 5829 5830 5830 5831 5831 5832 5833 5834 5834 5836 5837 5837 5837 5838 5838 5838 5838 5837 5836 5836 5836 5835 5835 5834 5833 5831 5830 5828 5827 5826 5824
5793 5796 5800 5799 5802 5804 5806 5808 5810 5812 5814 5816 5818 5819 5821 5822 5823 5823 5824 5825 5825 5826 5827 5828 5829 5829 5830 5830 5830 5829 5829 5828 5828 5828 5827 5826 5826 5825 5823 5821 5820 5819 5817 5816
5787 5790 5791 5792 5794 5796 5798 5800 5802 5804 5806 5808 5809 5811 5812 5813 5814 5815 5815 5816 5817 5817 5818 5819 5819 5820 5821 5821 5821 5820 5819 5819 5820 5819 5819 5818 5817 5816 5814 5813 5811 5810 5808 5806
5779 5781 5783 5785 5786 5789 5791 5792 5794 5796 5798 5800 5801 5802 5804 5805 5805 5806 5806 5808 5808 5809 5809 5810 5810 5810 5811 5811 5811 5811 5811 5811 5811 5811 5810 5809 5808 5807 5805 5804 5802 5801 5799 5797
5772 5774 5776 5778 5780 5782 5784 5785 5787 5788 5790 5791 5792 5794 5795 5796 5796 5797 5798 5798 5799 5799 5799 5800 5801 5802 5802 5802 5801 5802 5802 5802 5802 5801 5801 5799 5798 5797 5796 5794 5793 5791 5789 5787
5766 5768 5770 5772 5773 5775 5777 5778 5779 5781 5782 5783 5784 5785 5786 5787 5788 5788 5789 5790 5790 5790 5791 5791 5792 5792 5793 5793 5792 5792 5791 5792 5792 5792 5791 5790 5789 5787 5786 5785 5783 5781 5779 5776
5760 5761 5763 5765 5766 5768 5769 5771 5772 5773 5774 5775 5776 5777 5778 5779 5779 5780 5781 5781 5782 5782 5783 5783 5783 5783 5783 5783 5782 5782 5782 5782 5782 5782 5781 5780 5778 5777 5776 5774 5772 5770 5768 5765
5753 5755 5756 5758 5759 5761 5762 5764 5765 5766 5766 5767 5769 5770 5771 5772 5772 5773 5773 5774 5775 5775 5775 5775 5775 5775 5774 5773 5773 5773 5773 5772 5772 5773 5772 5770 5769 5767 5765 5764 5762 5760 5758 5755
5747 5749 5750 5751 5753 5754 5755 5756 5758 5759 5760 5761 5762 5763 5764 5765 5766 5766 5767 5767 5767 5767 5767 5767 5767 5766 5766 5765 5765 5764 5764 5764 5763 5763 5762 5760 5759 5757 5755 5753 5751 5749 5748 5745
5741 5743 5744 5745 5746 5747 5748 5749 5750 5752 5753 5754 5755 5757 5758 5758 5759 5759 5760 5760 5760 5759 5759 5759 5759 5758 5758 5757 5757 5756 5756 5755 5754 5754 5752 5751 5749 5747 5746 5744 5741 5739 5737 5735
5736 5737 5738 5739 5741 5741 5742 5743 5744 5745 5746 5748 5749 5750 5751 5752 5752 5753 5752 5752 5752 5752 5751 5751 5751 5750 5750 5749 5749 5748 5747 5746 5745 5744 5743 5741 5739 5737 5735 5733 5731 5729 5727 5724
5730 5732 5733 5734 5735 5736 5736 5737 5738 5740 5741 5742 5743 5744 5745 5745 5746 5746 5745 5745 5745 5745 5744 5744 5743 5743 5742 5742 5741 5740 5739 5738 5736 5735 5734 5732 5730 5728 5726 5723 5721 5719 5716 5714
5726 5727 5728 5729 5730 5731 5732 5733 5734 5735 5736 5737 5737 5738 5738 5739 5739 5739 5738 5738 5738 5738 5737 5737 5736 5735 5734 5733 5733 5732 5730 5729 5728 5726 5725 5723 5721 5719 5717 5714 5711 5709 5706 5704
5722 5723 5724 5725 5726 5727 5727 5728 5729 5730 5731 5732 5732 5733 5733 5733 5733 5732 5732 5731 5731 5731 5730 5730 5729 5728 5727 5725 5724 5723 5722 5721 5719 5718 5716 5714 5712 5710 5707 5704 5702 5699 5696 5693
5717 5719 5720 5720 5721 5722 5723 5723 5724 5725 5726 5727 5727 5727 5727 5727 5727 5727 5726 5726 5725 5724 5724 5723 5722 5721 5719 5718 5717 5715 5714 5712 5710 5709 5707 5705 5703 5700 5698 5695 5692 5689 5686 5683
5714 5714 5715 5716 5717 5717 5718 5719 5719 5720 5720 5721 5721 5721 5721 5721 5721 5721 5720 5720 5719 5718 5717 5716 5715 5714 5712 5711 5709 5707 5706 5704 5702 5700 5698 5696 5694 5691 5688 5686 5682 5679 5676 5672
5709 5710 5711 5712 5712 5713 5713 5714 5714 5715 5715 5716 5716 5716 5716 5715 5715 5714 5714 5713 5712 5711 5710 5709 5708 5707 5705 5704 5702 5700 5698 5696 5694 5692 5690 5687 5685 5682 5679 5676 5673 5669 5666 5663
5705 5706 5707 5707 5708 5708 5709 5709 5709 5710 5710 5710 5710 5710 5710 5710 5709 5708 5707 5706 5706 5704 5703 5702 5701 5700 5699 5697 5695 5693 5691 5689 5686 5684 5681 5679 5676 5673 5670 5666 5663 5660 5656 5653
5702 5703 5703 5703 5704 5704 5704 5705 5705 5705 5705 5706 5706 5705 5705 5704 5703 5702 5701 5700 5699 5698 5697 5696 5694 5693 5691 5690 5687 5685 5683 5681 5678 5675 5672 5669 5666 5663 5660 5657 5654 5650 5647 5643
5699 5700 5700 5700 5700 5700 5700 5701 5701 5701 5701 5701 5701 5701 5700 5699 5698 5697 5696 5695 5694 5692 5691 5689 5688 5686 5684 5682 5680 5678 5675 5673 5670 5666 5663 5660 5657 5654 5651 5647 5644 5641 5637 5633
5697 5697 5697 5697 5697 5697 5697 5697 5697 5697 5697 5697 5696 5696 5696 5695 5694 5692 5691 5689 5688 5686 5685 5683 5681 5680 5678 5676 5673 5670 5668 5665 5661 5658 5655 5651 5648 5645 5642 5638 5635 5631 5627 5624